This is the latest recevied weather packets stored in our database for station/object 9W4GWK-G. If no packets are shown the sender has not sent any weather packets the latest 10 day(s).
| Time | Temp. | Humidity | Pressure | Rain* | Wind** | Luminosity | Snow |
|---|---|---|---|---|---|---|---|
| 1777579412 | 31.11° C | 63% | 1009.6 hPa | - | - | - | - |
| 1777578510 | 31.11° C | 63% | 1009.9 hPa | - | - | - | - |
| 1777577608 | 31.11° C | 62% | 1009.9 hPa | - | - | - | - |
| 1777576706 | 30.56° C | 61% | 1010.1 hPa | - | - | - | - |
| 1777575804 | 30.56° C | 61% | 1010.1 hPa | - | - | - | - |
| 1777574902 | 30.56° C | 61% | 1010.1 hPa | - | - | - | - |
| 1777574000 | 30° C | 59% | 1010.4 hPa | - | - | - | - |
| 1777573098 | 30° C | 59% | 1010.9 hPa | - | - | - | - |
| 1777572196 | 29.44° C | 57% | 1010.9 hPa | - | - | - | - |
| 1777571294 | 28.89° C | 53% | 1011.1 hPa | - | - | - | - |
| 1777570392 | 28.89° C | 56% | 1011.3 hPa | - | - | - | - |
| 1777569490 | 28.89° C | 42% | 1011.3 hPa | - | - | - | - |
| 1777568588 | 28.89° C | 43% | 1011.4 hPa | - | - | - | - |
| 1777567686 | 30° C | 45% | 1011.4 hPa | - | - | - | - |
| 1777566784 | 30.56° C | 57% | 1011.6 hPa | - | - | - | - |
| 1777565882 | 31.11° C | 64% | 1011.8 hPa | - | - | - | - |
| 1777564980 | 31.11° C | 64% | 1011.8 hPa | - | - | - | - |
| 1777564077 | 30.56° C | 64% | 1011.9 hPa | - | - | - | - |
| 1777563176 | 30.56° C | 64% | 1011.9 hPa | - | - | - | - |
| 1777562273 | 30° C | 64% | 1011.6 hPa | - | - | - | - |
| 1777561372 | 29.44° C | 64% | 1011.4 hPa | - | - | - | - |
| 1777560470 | 28.89° C | 64% | 1011.3 hPa | - | - | - | - |
| 1777559567 | 27.78° C | 66% | 1011.5 hPa | - | - | - | - |
| 1777558664 | 26.67° C | 60% | 1011.2 hPa | - | - | - | - |
| 1777557762 | 26.11° C | 49% | 1010.9 hPa | - | - | - | - |
* Rain since midnight (hover to see other rain measurements)
** Current wind speed in m/s (hover to see current wind gust speed)